Regional Weather Roundup
Issued by NWS

Home | Current Version | Previous Version | Text Only | Print | Product List | Glossary On
Versions: 1 2 3 4 5 6 7 8 9 10 11 12 13 14 15 16 17 18 19 20 21 22 23 24 25 26 27 28 29 30 31 32 33 34 35 36 37 38 39 40 41 42 43 44 45 46 47 48 49 50
000
ASUS43 KTOP 180508
RWRKS

WEATHER ROUNDUP FOR KANSAS
NATIONAL WEATHER SERVICE GOODLAND KS
1100 PM CST TUE JAN 17 2017

NOTE:  "FAIR" INDICATES FEW OR NO CLOUDS BELOW 12,000 FEET WITH NO
SIGNIFICANT WEATHER AND/OR OBSTRUCTIONS TO VISIBILITY.

KSZ001>006-013>018-027>032-041>047-180600-
NORTHWEST KANSAS

CITY           SKY/WX    TMP DP  RH WIND       PRES   REMARKS
GOODLAND       CLEAR     35  30  82 SW14      30.05S WCI  26
HAYS           CLEAR     30  26  85 W3        30.12F
HILL CITY      CLEAR     33  27  78 SW8       30.11R
RUSSELL        CLEAR     31  28  89 S7        30.11S
$$

KSZ061>065-074>080-084>089-180600-
SOUTHWEST KANSAS

CITY           SKY/WX    TMP DP  RH WIND       PRES   REMARKS
DODGE CITY     CLOUDY    34  28  79 S8        30.12S
ELKHART          N/A     34  26  72 S9          N/A
GARDEN CITY    CLEAR     32  28  85 SE7       30.10F
GREAT BEND     CLOUDY    30  29  96 S5        30.12F
LIBERAL        PTCLDY    37  28  70 S8        30.12S
PRATT          MOCLDY    31  28  88 S5        30.14S
$$

KSZ066>073-081>083-090>101-180600-
SOUTHEAST KANSAS

CITY           SKY/WX    TMP DP  RH WIND       PRES   REMARKS
CHANUTE        PTCLDY    34  32  92 S6        30.19R
COFFEYVILLE    CLOUDY    36  33  89 S8        30.23R
HUTCHINSON     PTCLDY    29  27  92 CALM      30.14F
MEDICINE LODGE   N/A     38  32  79 S6        30.16R
NEWTON         MOCLDY    37  31  78 S7        30.15S
PARSONS        PTCLDY    34  32  92 S3        30.22R
WICHITA INTL   PTCLDY    36  32  85 S6        30.15F
WICHITA JABRA  CLOUDY    38  32  79 S8        30.15F
WICHITA MCCONL CLOUDY    38  31  75 S5        30.15F
WINFIELD       PTCLDY    39  34  82 S7        30.19R
$$

KSZ007>012-019>026-033>040-048>060-102>105-180600-
NORTHEAST KANSAS

CITY           SKY/WX    TMP DP  RH WIND       PRES   REMARKS
CONCORDIA      CLOUDY    33  28  81 SW9       30.12S
EMPORIA        CLOUDY    29  27  92 S8        30.16R
LAWRENCE       CLOUDY    29  29 100 E5        30.17R FOG
MANHATTAN      CLOUDY    26  24  92 CALM      30.16R
MARYSVILLE     CLOUDY    30  28  93 S3        30.12F
OLATHE IND     FOG       29  28  96 S3        30.17R VSB 1/2
OLATHE EXE     CLEAR     31  31 100 S5        30.16R FOG
SALINA         CLEAR     34  28  79 S5        30.16R
TOPEKA BILLARD CLOUDY    29  25  85 CALM      30.16R
TOPEKA FORBES  CLOUDY    28  26  92 SE3       30.15R
$$



USA.gov is the U.S. government's official web portal to all federal, state and local government web resources and services.